Regional Weather Roundup
Issued by NWS

Home | Current Version | Previous Version | Graphics & Text | Print | Product List | Glossary Off
Versions: 1 2 3 4 5 6 7 8 9 10 11 12 13 14 15 16 17 18 19 20 21 22 23 24 25 26 27 28 29 30 31 32 33 34 35 36 37 38 39 40 41 42 43 44 45 46 47 48 49 50

000
ASUS43 KDMX 191607
RWRIA

WEATHER ROUNDUP FOR IOWA
NATIONAL WEATHER SERVICE DES MOINES IA
1100 AM CDT SUN OCT 19 2014

NOTE: "FAIR" INDICATES FEW OR NO CLOUDS BELOW 12,000 FEET WITH NO
SIGNIFICANT WEATHER AND/OR OBSTRUCTIONS TO VISIBILITY.

* - THESE STATIONS ARE NOT NWS STATIONS...THUS NOT UNDER NWS
QUALITY CONTROL.  THEY ALSO DO NOT REPORT WEATHER SUCH
AS PRECIPITATION OR FOG.

IAZ001>003-012>014-020>022-031>034-043>046-191700-
   NORTHWEST IOWA

CITY           SKY/WX    TMP DP  RH WIND       PRES   REMARKS
CARROLL *      SUNNY     57  45  62 SW18G26   30.02F
CHEROKEE *     PTSUNNY   57  45  62 SW18G25   29.98F
DENISON *      SUNNY     55  45  67 SW12G21   30.01F
LE MARS *      SUNNY     57  45  62 S14       29.98F
ORANGE CITY *  SUNNY     57  45  62 SW15      29.96F
SHELDON *      SUNNY     54  43  66 SW18G24   29.95F
SIOUX CITY     PTSUNNY   59  43  55 SW10      30.00F
SPENCER        CLOUDY    57  43  59 SW21G31   29.95F
STORM LAKE *   SUNNY     54  43  66 SW16G24   30.00F
$$

IAZ055>058-069>071-079>083-090>094-191700-
   SOUTHWEST IOWA

CITY           SKY/WX    TMP DP  RH WIND       PRES   REMARKS
ATLANTIC *     SUNNY     55  46  71 S15       30.06F
AUDUBON *      SUNNY     55  45  67 S13G21    30.05F
CLARINDA *     SUNNY     57  48  72 SW15      30.12F
COUNCIL BLFS * SUNNY     55  48  76 SW16      30.05F
CRESTON *      SUNNY     55  46  71 SW17      30.10F
HARLAN  *      SUNNY     55  48  76 SW16G23   30.08F
LAMONI         SUNNY     55  45  68 SW13      30.12F
RED OAK *      SUNNY     57  48  72 SW13G20   30.09F
SHENANDOAH *   SUNNY     59  46  63 SW15G23   30.10F
$$

IAZ047>049-059>061-072>074-084-191700-
   CENTRAL IOWA

CITY           SKY/WX    TMP DP  RH WIND       PRES   REMARKS
AMES           MOSUNNY   54  44  69 SW17G25   30.06F
ANKENY *       SUNNY     55  46  71 S13G20    30.08F
CHARITON *     SUNNY     55  45  67 SW15G25   30.12F
DES MOINES     MOSUNNY   56  45  66 SW16      30.09F
GRINNELL*      SUNNY     52  45  76 SW10      30.10F
KNOXVILLE *    SUNNY     55  45  67 S13       30.10F HAZE
MARSHALLTOWN   PTSUNNY   52  44  74 SW12      30.07F
PELLA *        SUNNY     55  46  71 SW14      30.12F
PERRY *          N/A     57  46  67 SW14G20   30.05F
$$

IAZ004>006-015-016-023>025-035-036-191700-
   NORTH CENTRAL IOWA

CITY           SKY/WX    TMP DP  RH WIND       PRES   REMARKS
ALGONA *       SUNNY     55  46  71 SW18      29.98F
CLARION *      SUNNY     54  46  76 SW15G23   30.01F
ESTHERVILLE    PTSUNNY   55  42  61 SW23G32   29.94F
FORT DODGE *   MOSUNNY   54  45  71 SW15G23   30.02F
MASON CITY     CLOUDY    51  43  74 SW21G26   30.01F
FOREST CITY *  SUNNY     50  45  81 S14G20    29.99F
IOWA FALLS *     N/A     52  45  76 S15       30.04F
$$

IAZ007>011-017>019-026>030-037>042-050>054-066-191700-
   NORTHEAST IOWA

CITY           SKY/WX    TMP DP  RH WIND       PRES   REMARKS
CEDAR RAPIDS   SUNNY     52  45  77 S14       30.11F
CHARLES CITY * SUNNY     50  43  76 SW20      30.03F
CLINTON *      MOSUNNY   52  41  66 SW12      30.18F
DECORAH *      SUNNY     50  43  76 S12G17    30.03F
DUBUQUE        MOSUNNY   49  43  80 SW21      30.11F
MONTICELLO *   SUNNY     54  45  71 S12G20    30.12F
OELWEIN *      SUNNY     50  45  81 S18       30.07F
WATERLOO       CLOUDY    51  43  74 S10       30.06F
$$

IAZ064-065-067-068-078-191700-
   EAST CENTRAL IOWA

CITY           SKY/WX    TMP DP  RH WIND       PRES   REMARKS
DAVENPORT      SUNNY     52  41  66 S16       30.16F
IOWA CITY      SUNNY     52  44  74 S14       30.15F
MT. PLEASANT * SUNNY     54  43  66 S10G17    30.16F
MUSCATINE *    SUNNY     54  43  66 SW14      30.16F
QUAD CITIES    SUNNY     53  43  68 SW13      30.16F
$$

IAZ062-063-075>077-085>089-095>099-191700-
   SOUTHEAST IOWA

CITY           SKY/WX    TMP DP  RH WIND       PRES   REMARKS
BURLINGTON     SUNNY     53  44  71 SW13      30.18F
FAIRFIELD *    SUNNY     54  43  66 S13G18    30.15F
FORT MADISON * SUNNY     55  45  67 S10       30.18F
KEOKUK *       SUNNY     54  45  71 S13       30.18F
OSKALOOSA *      N/A     55  45  67 SW15      30.13F
CENTERVILLE *  SUNNY     55  46  71 S12       30.16F
OTTUMWA        SUNNY     55  44  66 S13       30.13F
WASHINGTON *   SUNNY     55  46  71 SW10G20   30.14F
$$

ABBREVIATIONS USED IN REMARKS
   TC - TEMPERATURES IN CELSIUS
  WCI - WIND CHILL INDEX
   HX - HEAT INDEX
  VSB - VISIBILITY
$$




USA.gov is the U.S. government's official web portal to all federal, state and local government web resources and services.